Station: Tasman Island  

  Atmospheric Gas Attenuation - ITU Rec 676-11   ----------------- dB/100km -----------------
Date Time Temp RH % AH g/m3 Dew Point Wind Direction Speed kph Gust kph Barometer mB Rainfall Since 9am 24GHz 47GHz 76GHz 122GHz 134GHz 241GHz
03/09 05:50 10.8 75 7.41 6.6 20 33 992.9 0 17.2 24.1 35.6 93.5 84.8 290.6
03/09 05:40 10.9 75 7.46 6.6 19 33 992.7 0 17.3 24.1 35.7 93.9 85.3 292.5
03/09 05:30 11.1 73 7.35 6.5 20 37 992.5 0 17.0 23.9 35.2 92.5 83.6 286.7
03/09 05:20 11.6 68 7.07 5.9 26 41 992.3 0 16.4 23.3 33.9 89.0 79.5 272.4
03/09 05:10 12 63 6.71 5.2 30 46 992.1 0 15.6 22.6 32.4 84.9 74.6 255.2
03/09 05:00 11.6 65 6.76 5.3 24 41 992.3 0 15.8 22.8 32.7 85.8 75.6 258.7
03/09 04:50 11.3 67 6.84 5.4 19 32 992.3 0 15.9 23.0 33.1 87.0 76.9 263.2
03/09 04:40 10.9 69 6.86 5.4 20 46 992 0 16.0 23.1 33.4 87.6 77.6 265.4
03/09 04:30 11 69 6.91 5.5 20 39 992.1 0 16.1 23.2 33.5 88.0 78.1 267.3
03/09 04:20 11.1 70 7.05 5.8 17 30 992.1 0 16.4 23.4 34.0 89.3 79.8 273.2
03/09 04:10 10.8 71 7.02 5.8 17 28 992.4 0 16.4 23.4 34.1 89.4 79.7 272.9
03/09 04:00 10.7 73 7.17 6.1 17 28 992.5 0 16.7 23.7 34.7 91.1 81.7 280.0
03/09 03:50 10.8 73 7.22 6.2 19 24 993.2 0 16.8 23.8 34.9 91.5 82.3 282.1
03/09 03:40 10.9 71 7.06 5.9 15 24 993.4 0 16.4 23.5 34.2 89.8 80.2 274.6
03/09 03:30 11.3 68 6.94 5.6 20 35 993.6 0 16.2 23.2 33.6 88.1 78.3 267.9
03/09 03:20 11.5 67 6.92 5.6 19 35 993.7 0 16.1 23.1 33.4 87.7 77.8 266.4
03/09 03:10 11.4 68 6.98 5.7 19 32 993.9 0 16.2 23.3 33.7 88.4 78.7 269.4
03/09 03:00 11.1 69 6.95 5.6 19 35 994.3 0 16.2 23.3 33.7 88.5 78.7 269.2
03/09 02:50 11.3 67 6.84 5.4 22 44 994.6 0 15.9 23.1 33.2 87.2 77.1 263.7
03/09 02:40 11.5 66 6.82 5.4 22 46 994.6 0 15.9 23.0 33.1 86.8 76.6 262.2
03/09 02:30 11.5 67 6.92 5.6 20 35 994.9 0 16.1 23.2 33.5 87.8 77.9 266.7
03/09 02:20 11.4 67 6.88 5.5 22 41 995.4 0 16.0 23.2 33.4 87.6 77.5 265.3
03/09 02:10 11.2 68 6.89 5.5 22 50 995.8 0 16.1 23.3 33.5 87.9 77.9 266.5
03/09 02:00 11.4 66 6.78 5.3 22 44 995.8 0 15.8 23.0 33.0 86.6 76.3 261.0
03/09 01:50 11.3 67 6.84 5.4 22 41 996 0 15.9 23.2 33.3 87.3 77.2 264.0
03/09 01:40 11.4 65 6.67 5.1 26 44 996.2 0 15.6 22.9 32.6 85.5 75.0 256.3
03/09 01:30 11.5 65 6.71 5.2 26 44 996.1 0 15.7 22.9 32.7 85.8 75.4 257.7
03/09 01:20 11.3 67 6.84 5.4 22 39 996.4 0 15.9 23.2 33.3 87.4 77.2 264.1
03/09 01:10 11.5 65 6.71 5.2 26 41 996.4 0 15.7 22.9 32.7 85.8 75.4 257.7
03/09 01:00 11.4 65 6.67 5.1 26 39 996.6 0 15.6 22.9 32.6 85.5 75.0 256.4
03/09 00:50 11.5 65 6.71 5.2 26 41 996.7 0 15.7 22.9 32.7 85.8 75.4 257.8
03/09 00:40 11.6 65 6.76 5.3 28 50 996.9 0 15.8 23.0 32.9 86.3 75.9 259.7
03/09 00:30 11.6 65 6.76 5.3 30 46 997.1 0 15.8 23.0 32.9 86.3 76.0 259.8
03/09 00:20 11.6 65 6.76 5.3 26 41 997.1 0 15.8 23.0 32.9 86.3 76.0 259.8
03/09 00:10 11.6 64 6.65 5 24 41 997.4 0 15.5 22.8 32.5 85.2 74.6 255.0
03/09 00:00 11.6 64 6.65 5 26 43 997.5 0 15.5 22.8 32.5 85.2 74.6 255.0
02/09 23:50 11.6 64 6.65 5 28 43 997.5 0 15.5 22.8 32.5 85.2 74.6 255.0
02/09 23:40 11.7 63 6.59 4.9 28 48 997.8 0 15.4 22.7 32.3 84.5 73.8 252.2
02/09 23:30 11.7 63 6.59 4.9 28 43 998.1 0 15.4 22.7 32.3 84.5 73.8 252.2
02/09 23:20 11.8 63 6.63 5 26 43 998.3 0 15.5 22.8 32.4 84.9 74.2 253.7
02/09 23:10 11.8 64 6.74 5.2 24 39 998.5 0 15.7 23.0 32.8 86.0 75.6 258.6
02/09 23:00 11.8 64 6.74 5.2 22 37 998.7 0 15.7 23.0 32.8 86.0 75.6 258.6
02/09 22:50 11.6 64 6.65 5 24 37 998.7 0 15.5 22.9 32.6 85.3 74.7 255.3
02/09 22:40 11.7 64 6.69 5.1 24 43 998.8 0 15.6 22.9 32.7 85.6 75.1 256.7
02/09 22:30 11.8 64 6.74 5.2 22 41 999 0 15.7 23.0 32.8 86.0 75.6 258.7
02/09 22:20 11.9 63 6.67 5.1 26 43 999.3 0 15.6 22.9 32.5 85.2 74.7 255.3
02/09 22:10 11.9 63 6.67 5.1 26 43 999.5 0 15.6 22.9 32.5 85.3 74.7 255.4
02/09 22:00 11.9 64 6.78 5.3 26 46 999.7 0 15.8 23.0 33.0 86.4 76.1 260.2
02/09 21:50 11.8 65 6.84 5.4 22 41 999.8 0 15.9 23.2 33.2 87.1 76.9 263.2
02/09 21:40 11.4 66 6.78 5.3 17 37 1000.1 0 15.8 23.2 33.2 87.0 76.6 262.0
02/09 21:30 11.7 66 6.9 5.6 20 35 1000.2 0 16.1 23.3 33.5 87.9 77.8 266.3
02/09 21:20 11.6 66 6.86 5.5 17 30 1000.4 0 16.0 23.3 33.4 87.6 77.4 264.9
02/09 21:10 11.5 66 6.82 5.4 19 32 1000.5 0 15.9 23.2 33.3 87.3 77.0 263.5
02/09 21:00 11.5 66 6.82 5.4 20 37 1000.6 0 15.9 23.2 33.3 87.3 77.0 263.5
02/09 20:50 11.6 65 6.76 5.3 19 35 1000.6 0 15.8 23.1 33.1 86.6 76.2 260.6
02/09 20:40 11.6 65 6.76 5.3 19 30 1000.7 0 15.8 23.1 33.1 86.6 76.2 260.6
02/09 20:30 12 63 6.71 5.2 20 35 1000.8 0 15.6 23.0 32.7 85.7 75.2 257.1
02/09 20:20 11.8 64 6.74 5.2 19 39 1000.8 0 15.7 23.0 32.9 86.2 75.8 259.1
02/09 20:10 11.6 65 6.76 5.3 17 30 1001.1 0 15.8 23.1 33.1 86.7 76.2 260.7
02/09 20:00 11.9 63 6.67 5.1 19 28 1001.2 0 15.6 22.9 32.6 85.4 74.8 255.8
02/09 19:50 12.1 62 6.65 5 19 35 1001.1 0 15.5 22.8 32.5 85.0 74.4 254.2
02/09 19:40 11.8 64 6.74 5.2 17 24 1001.3 0 15.7 23.1 32.9 86.3 75.8 259.2
02/09 19:30 12.1 62 6.65 5 17 32 1001.2 0 15.5 22.8 32.5 85.0 74.4 254.2
02/09 19:20 12.1 63 6.76 5.3 19 32 1001.3 0 15.7 23.0 32.9 86.1 75.8 259.1
02/09 19:10 12.1 63 6.76 5.3 17 32 1001.5 0 15.7 23.0 32.9 86.1 75.8 259.1
02/09 19:00 12.1 63 6.76 5.3 17 30 1001.6 0 15.7 23.0 32.9 86.2 75.8 259.1
02/09 18:50 12.1 64 6.86 5.5 11 24 1001.6 0 16.0 23.2 33.3 87.2 77.0 263.5
02/09 18:40 12.2 63 6.8 5.4 13 28 1001.7 0 15.8 23.1 33.0 86.5 76.2 260.6
02/09 18:30 12.3 62 6.73 5.2 15 28 1001.6 0 15.7 22.9 32.7 85.6 75.2 257.2
02/09 18:20 12.4 62 6.77 5.3 17 28 1001.7 0 15.7 23.0 32.8 85.9 75.6 258.6
02/09 18:10 12.5 61 6.71 5.2 15 28 1001.7 0 15.6 22.9 32.5 85.2 74.8 255.7
02/09 18:00 12.6 60 6.64 5.1 17 28 1001.5 0 15.5 22.7 32.2 84.4 73.8 252.3
02/09 17:50 12.8 59 6.61 5 17 30 1001.5 0 15.4 22.6 32.0 83.9 73.2 250.4
02/09 17:40 12.9 59 6.65 5.1 15 28 1001.5 0 15.5 22.7 32.2 84.2 73.6 251.8
02/09 17:30 13 59 6.69 5.2 17 26 1001.6 0 15.6 22.7 32.3 84.5 74.0 253.2
02/09 17:20 12.9 60 6.76 5.3 17 28 1001.5 0 15.7 22.8 32.6 85.3 75.0 256.5
02/09 17:10 12.8 63 7.06 5.9 19 26 1001.4 0 16.4 23.3 33.7 88.4 78.8 269.9
02/09 17:00 13.2 60 6.89 5.6 19 26 1001.5 0 16.0 22.9 32.9 86.3 76.3 261.2
02/09 16:50 13.8 56 6.67 5.2 15 26 1001.6 0 15.5 22.5 31.9 83.5 73.1 249.8
02/09 16:40 13.6 57 6.71 5.3 17 24 1001.7 0 15.6 22.6 32.1 84.1 73.7 252.2
02/09 16:30 13.5 57 6.67 5.2 17 28 1001.8 0 15.5 22.6 32.0 83.8 73.3 250.8
02/09 16:20 13.8 56 6.67 5.2 17 28 1001.9 0 15.5 22.5 31.9 83.5 73.1 249.9
02/09 16:10 14.2 54 6.59 5 17 22 1001.7 0 15.3 22.3 31.4 82.3 71.7 245.2
02/09 16:00 14.2 54 6.59 5 13 26 1001.9 0 15.3 22.3 31.4 82.3 71.7 245.3
02/09 15:50 14.4 55 6.8 5.5 15 26 1002 0 15.7 22.5 32.1 84.1 74.1 253.6
02/09 15:40 13.6 58 6.83 5.5 15 28 1002 0 15.8 22.8 32.6 85.3 75.2 257.4
02/09 15:30 13.6 57 6.71 5.3 17 28 1001.9 0 15.6 22.6 32.1 84.1 73.7 252.2
02/09 15:20 13.8 58 6.91 5.7 13 24 1002 0 16.0 22.8 32.8 85.9 76.0 260.2
02/09 15:10 14.2 56 6.84 5.6 13 24 1002 0 15.8 22.6 32.4 84.7 74.8 255.9
02/09 15:00 15.3 52 6.79 5.5 15 28 1001.9 0 15.7 22.3 31.7 83.1 73.1 250.3
02/09 14:50 15.3 54 7.05 6.1 15 26 1001.9 0 16.2 22.7 32.7 85.6 76.3 261.3
02/09 14:40 13.7 55 6.51 4.8 15 26 1002 0 15.1 22.3 31.3 82.0 71.2 243.4
02/09 14:30 14.5 54 6.72 5.3 15 28 1002.1 0 15.6 22.4 31.8 83.3 73.0 249.9
02/09 14:20 14.3 55 6.76 5.4 17 30 1002.2 0 15.7 22.5 32.0 83.9 73.7 252.2
02/09 14:10 14.4 54 6.68 5.4 17 22 1002.3 0 15.5 22.4 31.7 83.0 72.7 248.5
02/09 14:00 13.5 57 6.67 5.2 15 28 1002.3 0 15.5 22.6 32.0 83.8 73.4 250.9
02/09 13:50 13.2 56 6.43 4.8 17 20 1002.4 0 15.0 22.3 31.3 81.8 70.7 241.6
02/09 13:40 13.5 56 6.55 4.9 17 24 1002.5 0 15.2 22.4 31.6 82.7 71.9 245.8
02/09 13:30 13.7 55 6.51 4.8 17 28 1002.6 0 15.1 22.3 31.4 82.1 71.3 243.5
02/09 13:20 14.1 55 6.68 5.2 17 28 1002.8 0 15.5 22.5 31.8 83.3 73.0 249.6

Last Refresh: 03-Sep-2026 05:34:40

Bureau of Meteorology